User: anonymous   Login
Location: Olsztyn
(53.7767°N, 20.4765°E)
Time: 15:39:12
(UTC+02:00)
Language:

Vanguard 2 Rocket - Orbit

View from above orbital plane
View from above orbital plane
View from above satellite
View from above satellite

Ground track
Ground track

The orbit data is extracted from the following two-line orbital elements,

1 00012U 59001B   24195.35732080  .00002653  00000-0  15651-2 0  9993
2 00012  32.8989 182.8031 1654169 342.1617  12.6988 11.46629497450432
Epoch (UTC): 13 July 2024 08:34:32
Eccentricity: 0.1654169
inclination: 32.8989°
perigee height: 555 km
apogee height: 3303 km
right ascension of ascending node: 182.8031°
argument of perigee: 342.1617°
revolutions per day: 11.46629497
mean anomaly at epoch: 12.6988°
orbit number at epoch: 45043

The dashed part of the orbit path shows where the satellite is in the earth's shadow,  

DLR